Weather in Pljevlja

Montenegro     43°21′19″N   19°21′07″E
temp.,
°C
wind,
m/s
gust,
m/s
humid.,
%
clouds,
%
prec.,
mm/h
press.,
hPa
HPBL,
m
21 april, wed
wed2123:00−1sw229312 0.0 101930
02:00−2sw229419 0.0 102043
05:00−2sw229419 0.0 102059
08:00+2sw128110 0.0 1020353
11:00+7wsw126164 0.1 10181336
14:00+8wsw235768 0.4 10181588
17:00+8sw226128 0.2 10181154
20:00+2sw229010 0.3 102130
22 april, thu
thu2223:00+1ssw22915 0.0 102324
02:000ssw229412 0.0 102331
05:00−1sw2295100 0.0 102334
08:00+4ssw126892 0.0 1022209
11:00+9sw2444100 0.0 10191285
14:00+8ssw3556100 0.0 10191401
17:00+6ssw2275100 0.3 1019671
20:00+3s1298100 2.9 1022399
23 april, fri
fri2323:00+1wsw11100100 6.9 1023144
02:00+1wnw01100100 13.4 102282
05:00+1s11100100 10.2 102370
08:00+2ene11100100 10.5 1023157
11:00+3ne1299100 0.3 1024526
14:00+3ne1298100 0.5 1025443
17:00+4ese129389 0.1 1024333
20:00+3ese1196100 0.1 102419
24 april, sat
sat2423:00+3ne119692 0.0 102515
02:00−1ne0097100 0.0 102714
05:00−2sse019789 0.0 102723
08:00+2nne128976 0.0 1025194
11:00+5ne2472100 0.0 10231242
14:00+7ne3565100 0.1 10201528
17:00+7ne357098 0.0 1019846
20:00+1ne118985 0.1 102213
25 april, sun
sun2523:00−2ne01945 0.0 102510
02:00−3ssw01956 0.0 102610
05:00−3ssw11956 0.0 102510
08:00+2ne12786 0.0 1024294
11:00+7nne23585 0.0 10221058
14:00+10n22503 0.0 10191377
17:00+9nne22525 0.0 10191389
20:00+3s11754 0.0 102110